Location: Deep Valley
(39.7548°N, 80.4695°W)
Time: 05:37:42
(UTC+00:00)

N. Korean satellite - Visible Passes

Search period start: 25 November 2020 00:00
Search period end: 05 December 2020 00:00
Orbit: 452 x 504 km, 97.2° (Epoch: 24 November)

Date Brightness Start Highest point End Pass type
(mag) Time Alt. Az. Time Alt. Az. Time Alt. Az.
25 Nov 9.6 09:59:05 10° NE 10:01:26 16° E 10:03:47 10° SE visible
25 Nov 7.5 11:31:42 10° NNW 11:34:47 27° WNW 11:37:53 10° SW visible
26 Nov 6.5 11:05:04 10° N 11:08:37 62° WNW 11:12:11 10° SSW visible
26 Nov 10.2 23:15:23 10° WSW 23:16:09 11° W 23:16:54 10° WNW visible
27 Nov 7.3 10:38:49 10° NNE 10:42:21 56° E 10:45:56 10° S visible
27 Nov 9.2 22:46:54 10° SSW 22:49:41 23° W 22:52:28 10° NW visible
28 Nov 8.9 10:12:59 10° NE 10:16:01 25° E 10:19:03 10° SSE visible
28 Nov 8.0 11:46:36 10° NNW 11:49:11 19° WNW 11:51:46 10° WSW visible
29 Nov 10.0 09:48:08 10° ENE 09:49:34 12° E 09:51:00 10° ESE visible
29 Nov 7.0 11:19:39 10° N 11:23:03 39° WNW 11:26:27 10° SW visible
30 Nov 6.5 10:53:11 10° NNE 10:56:49 90° NNW 11:00:29 10° SSW visible
30 Nov 9.7 23:02:07 10° SW 23:04:11 15° W 23:06:16 10° NW visible
01 Dec 8.1 10:27:05 10° NNE 10:30:30 38° E 10:33:56 10° SSE visible
01 Dec 8.5 22:34:37 10° SSW 22:37:44 33° W 22:40:53 10° NNW visible
02 Dec 9.5 10:01:30 10° NE 10:04:05 18° E 10:06:40 10° SE visible
02 Dec 7.6 11:34:19 10° NNW 11:37:23 26° WNW 11:40:27 10° SW visible
03 Dec 6.6 11:07:36 10° N 11:11:11 56° WNW 11:14:47 10° SSW visible
04 Dec 7.1 10:41:16 10° NNE 10:44:53 62° E 10:48:32 10° S visible
04 Dec 9.4 22:49:26 10° SSW 22:52:08 21° W 22:54:52 10° NW visible
